Regional Weather Roundup
Issued by NWS Mobile, AL

Home | Current Version | Previous Version | Text Only | Print | Product List | Glossary On
Versions: 1 2 3 4 5 6 7 8 9 10 11 12 13 14 15 16 17 18 19 20 21 22 23 24 25 26 27
000
ASUS44 KMOB 161410
RWRMOB
REGIONAL WEATHER ROUNDUP
NATIONAL WEATHER SERVICE MOBILE AL
900 AM CDT WED APR 16 2014

NOTE: "FAIR" INDICATES FEW OR NO CLOUDS BELOW 12,000 FEET WITH NO
      SIGNIFICANT WEATHER AND/OR OBSTRUCTIONS TO VISIBILITY.

  * THESE STATIONS ARE PART OF THE UNIVERSITY OF SOUTH ALABAMA
    MESONET AND ARE NOT UNDER NWS OR FAA QUALITY CONTROL.

ALZ061>064-161500-
COASTAL ALABAMA

CITY           SKY/WX    TMP DP  RH WIND       PRES   REMARKS
MOBILE REG APT SUNNY     47  30  51 NE14G21   30.24S
BROOKLEY FIELD SUNNY     47  31  53 NE10      30.25S
USA CAMPUS*      N/A    N/A N/A N/A E9        30.24F
DOG RIVER*     NOT AVBL


CITY           SKY/WX    TMP DP  RH WIND       PRES   REMARKS
MOUNT VERNON*    N/A    N/A N/A N/A NE7       30.25S
SARALAND*      NOT AVBL
BAY MINETTE*   NOT AVBL
LOXLEY*        NOT AVBL
ROBERTSDALE*   NOT AVBL
FAIRHOPE*      NOT AVBL
ELBERTA*       NOT AVBL
FOLEY*         NOT AVBL
GRAND BAY*       N/A    N/A N/A N/A E13       30.22S
DAUPHIN ISLND* NOT AVBL
BON SCOUR NWR* NOT AVBL
GULF SHORES    SUNNY     46  31  55 E12       30.23R

$$

ALZ051>060-161500-
INTERIOR SOUTHWEST AND SOUTH CENTRAL ALABAMA

CITY           SKY/WX    TMP DP  RH WIND       PRES   REMARKS
GREENVILLE     SUNNY     45  29  53 E10G21    30.22R
EVERGREEN      SUNNY     46  31  55 E13       30.25R
CASTLEBERRY*   NOT AVBL
ATMORE*          N/A     45  32  61 E13       30.25R
DIXIE*         NOT AVBL
ANDALUSIA/OPP  SUNNY     49  31  49 E12       30.23R
ANDALUSIA*     NOT AVBL
FLORALA APT    SUNNY     47  32  56 E14G21    30.23R
FLORALA*         N/A    N/A N/A N/A NE3       30.20R

$$

FLZ001>006-161500-
WESTERN FLORIDA PANHANDLE

CITY           SKY/WX    TMP DP  RH WIND       PRES   REMARKS
PENSACOLA      SUNNY     48  29  47 NE12G17   30.22R
NAS PENSACOLA  SUNNY     48  32  53 NE13      30.22R
MILTON         SUNNY     47  29  49 E9G17     30.23R
WHTNG S FIELD  SUNNY     46  28  49 E8        30.23R


CITY           SKY/WX    TMP DP  RH WIND       PRES   REMARKS
WALNUT HILL*   NOT AVBL
JAY*           NOT AVBL
DUKE FIELD     SUNNY     47  29  50 E12       30.22R
CRESTVIEW      SUNNY     49  33  54 NE12      30.23R
VALPARAISO     SUNNY     48  32  54 E12       30.23R
DESTIN         SUNNY     49  33  54 E12G18    30.22R

$$

MSZ076-079-161500-
INTERIOR SOUTHEAST MISSISSIPPI

CITY           SKY/WX    TMP DP  RH WIND       PRES   REMARKS
LEAKESVILLE*     N/A    N/A N/A N/A E8        30.24R
AGRICOLA*      NOT AVBL

$$

MARINE OBSERVATIONS

STATION/POSITION TIME  TEMP    WIND        PRES    WAVE
                       AIR SEA DIR/SP/G            HT/PER
                 (UTC) (F)     (DEG/KT/KT) (MB)    (FT/S)
PASCAGOULA       1400   47      70/  9/ 13 1023.5R
PETIT BOIS ISLND 1400   49      60/ 19/ 23 1023.7R
GRAND BAY        1300   44      40/  6     1024.0S
KATRINA CUT      1300   49      80/ 21     1024.0S
CEDAR POINT      1300   45      70/ 16     1024.4R
E DAUPHIN ISLAND 1300   46      60/ 18/ 21 1023.6R
MIDDLE BAY LIGHT 1300   46      50/ 14     1023.4R
USCG MOBILE BAY  1400   46 61   60/  8/ 12 1023.1S
STATE DOCKS      1400   49 62              1023.7F
MEAHER PARK      1300   45      40/  6     1024.7R
WEEKS BAY        1300   42                   N/A
FORT MORGAN      1400   45      80/ 16/ 19 1023.0S
12 S ORANGE BCH  1400   49 66   60/ 17/ 23 1023.0R   5/ 6
PENSACOLA BAY    1400   48 67   60/  6/ 11 1023.7S
64 S DAUPHIN ISL 1313   55 68   70/ 16/ 21 1022.5S
67 S FORT MORGAN 1300   55                 1022.0S

$$

SELECTED LOCATIONS ACROSS THE REGION

CITY           SKY/WX    TMP DP  RH WIND       PRES   REMARKS
NEW ORLEANS    SUNNY     52  36  54 E12       30.24R
GULFPORT       SUNNY     50  32  50 E13       30.24R
PASCAGOULA AP  SUNNY     47  32  56 E13       30.23S
PASCAGOULA*      N/A     46  34  61 E5        30.24R
HATTIESBURG    SUNNY     45  31  58 E8        30.26R
LAUREL         SUNNY     45  28  53 E10       30.26R
MERIDIAN       SUNNY     45  27  49 E14G21    30.27R
JACKSON        MOSUNNY   46  28  49 E9        30.27R
MONTGOMERY     SUNNY     46  29  51 E13       30.26R
TROY           SUNNY     46  31  55 VRB6      30.24R
KINSTON*       NOT AVBL
GENEVA*          N/A     46  34  61 SE8       30.25R
ASHFORD*       NOT AVBL
DOTHAN         SUNNY     45  32  60 NE15      30.25R
PANAMA CITY    SUNNY     49  33  54 N15       30.20R

$$




USA.gov is the U.S. government's official web portal to all federal, state and local government web resources and services.